FW8892 Weather Reports


Display with metric or nautical units.
time (UTC)temp
F
wind
direction
speed
MPH
gust
MPH
rain 1hr
in
rain 24hr
in
rain mn
in
humidity
%
barometer
mb
20260502130528 56 0 1.0 3.0 0.00 0.00 0.00 67 1017.2
20260502123529 52 94 1.0 4.0 0.00 0.00 0.00 74 1017.1
20260502123056 51 71 0.0 3.0 0.00 0.00 0.00 75 1017.2
20260502122529 50 100 0.0 2.0 0.00 0.00 0.00 78 1017.2
20260502122030 50 0 0.0 0.0 0.00 0.00 0.00 81 1017.1
20260502121544 48 0 0.0 0.0 0.00 0.00 0.00 86 1017.2
20260502121029 47 0 0.0 0.0 0.00 0.00 0.00 88 1017.0
20260502120529 46 0 0.0 0.0 0.00 0.00 0.00 89 1017.0
20260502115531 43 0 0.0 0.0 0.00 0.00 0.00 94 1016.9
20260502115030 42 0 0.0 0.0 0.00 0.00 0.00 94 1016.9
20260502114549 41 0 0.0 0.0 0.00 0.00 0.00 96 1016.9
20260502114029 41 0 0.0 0.0 0.00 0.00 0.00 96 1016.7
20260502113541 40 0 0.0 0.0 0.00 0.00 0.00 96 1016.6
20260502113048 39 0 0.0 0.0 0.00 0.00 0.00 96 1016.6
20260502112532 38 0 0.0 0.0 0.00 0.00 0.00 94 1016.5
20260502112028 38 0 0.0 0.0 0.00 0.00 0.00 94 1016.5
20260502111553 38 0 0.0 0.0 0.00 0.00 0.00 94 1016.4
20260502111028 38 0 0.0 0.0 0.00 0.00 0.00 94 1016.4
20260502110527 38 0 0.0 0.0 0.00 0.00 0.00 93 1016.4
20260502110048 38 0 0.0 0.0 0.00 0.00 0.00 94 1016.4
20260502105527 38 0 0.0 0.0 0.00 0.00 0.00 94 1016.3
20260502105028 38 0 0.0 0.0 0.00 0.00 0.00 94 1016.3
20260502104544 38 0 0.0 0.0 0.00 0.00 0.00 93 1016.3
20260502104027 38 0 0.0 0.0 0.00 0.00 0.00 93 1016.3
20260502103527 38 0 0.0 0.0 0.00 0.00 0.00 93 1016.3
20260502103047 39 0 0.0 0.0 0.00 0.00 0.00 93 1016.3
20260502102527 39 0 0.0 0.0 0.00 0.00 0.00 92 1016.2
20260502102027 39 0 0.0 0.0 0.00 0.00 0.00 92 1016.2
20260502101544 39 0 0.0 0.0 0.00 0.00 0.00 92 1016.2
20260502101026 39 0 0.0 0.0 0.00 0.00 0.00 92 1016.3
20260502100527 39 0 0.0 0.0 0.00 0.00 0.00 92 1016.2
20260502091029 41 0 0.0 0.0 0.00 0.00 0.00 91 1016.3
20260502090527 41 0 0.0 0.0 0.00 0.00 0.00 91 1016.3
20260502071030 42 0 0.0 0.0 0.00 0.00 0.00 90 1016.7
20260502070530 42 0 0.0 0.0 0.00 0.00 0.00 91 1016.7
20260502070048 42 0 0.0 0.0 0.00 0.00 0.00 91 1016.8
20260502065530 42 0 0.0 0.0 0.00 0.00 0.00 91 1016.8
20260502065031 42 0 0.0 0.0 0.00 0.00 0.00 91 1016.8
20260502064550 42 0 0.0 0.0 0.00 0.00 0.00 91 1016.9
20260502064029 42 0 0.0 0.0 0.00 0.00 0.00 91 1017.1
20260502063530 42 0 0.0 0.0 0.00 0.00 0.00 90 1017.0
20260502063101 42 0 0.0 0.0 0.00 0.00 0.00 90 1017.0
20260502062531 42 0 0.0 0.0 0.00 0.00 0.00 90 1017.2
20260502062026 42 0 0.0 0.0 0.00 0.00 0.00 90 1017.3
20260502061548 42 0 0.0 0.0 0.00 0.00 0.00 90 1017.4
20260502061030 42 0 0.0 0.0 0.00 0.00 0.00 90 1017.5
20260502060527 42 0 0.0 0.0 0.00 0.00 0.00 90 1017.3
20260502060050 42 0 0.0 0.0 0.00 0.00 0.00 90 1017.3
20260502055530 42 0 0.0 0.0 0.00 0.00 0.00 90 1017.3
20260502055029 42 0 0.0 0.0 0.00 0.00 0.00 90 1017.2
20260502054543 42 0 0.0 0.0 0.00 0.00 0.00 90 1017.1
20260502054029 42 0 0.0 0.0 0.00 0.00 0.00 89 1017.0
20260502053529 42 0 0.0 0.0 0.00 0.00 0.00 89 1016.7
20260502053055 42 0 0.0 0.0 0.00 0.00 0.00 89 1016.7
20260502052530 42 0 0.0 0.0 0.00 0.00 0.00 88 1016.7
20260502052030 42 0 0.0 0.0 0.00 0.00 0.00 88 1016.7
20260502051548 42 0 0.0 0.0 0.00 0.00 0.00 88 1016.7
20260502051026 42 0 0.0 0.0 0.00 0.00 0.00 87 1016.6
20260502050530 42 0 0.0 0.0 0.00 0.00 0.00 87 1016.5
20260502050047 42 0 0.0 0.0 0.00 0.00 0.00 87 1016.5
20260502045529 43 0 0.0 0.0 0.00 0.00 0.00 87 1016.5
20260502045028 43 0 0.0 0.0 0.00 0.00 0.00 86 1016.4
20260502044542 43 0 0.0 0.0 0.00 0.00 0.00 86 1016.5
20260502044027 43 0 0.0 0.0 0.00 0.00 0.00 86 1016.6
20260502043527 43 0 0.0 0.0 0.00 0.00 0.00 86 1016.7
20260502043042 43 0 0.0 0.0 0.00 0.00 0.00 86 1016.9
20260502042527 43 0 0.0 0.0 0.00 0.00 0.00 86 1016.9
20260502042027 44 0 0.0 0.0 0.00 0.00 0.00 86 1016.9
20260502041539 44 0 0.0 0.0 0.00 0.00 0.00 85 1017.0
20260502041027 44 0 0.0 0.0 0.00 0.00 0.00 85 1017.0
20260502040528 44 0 0.0 0.0 0.00 0.00 0.00 84 1017.1
20260502040040 44 0 0.0 0.0 0.00 0.00 0.00 84 1017.1
20260502035529 44 0 0.0 0.0 0.00 0.00 0.00 83 1017.1
20260502035029 45 0 0.0 0.0 0.00 0.00 0.00 83 1017.2
20260502034545 45 0 0.0 0.0 0.00 0.00 0.00 81 1017.2
20260502034027 45 0 0.0 0.0 0.00 0.00 0.00 81 1017.4
20260502033526 45 0 0.0 0.0 0.00 0.00 0.00 81 1017.5
20260502033048 45 0 0.0 0.0 0.00 0.00 0.00 80 1017.6
20260502032531 46 0 0.0 0.0 0.00 0.00 0.00 80 1017.6
20260502032028 46 0 0.0 0.0 0.00 0.00 0.00 80 1017.6
20260502031544 46 0 0.0 0.0 0.00 0.00 0.00 80 1017.6
20260502031026 46 0 0.0 0.0 0.00 0.00 0.00 80 1017.8
20260502030530 47 0 0.0 0.0 0.00 0.00 0.00 79 1017.9
20260502030048 47 0 0.0 0.0 0.00 0.00 0.00 78 1017.8
20260502025525 47 0 0.0 0.0 0.00 0.00 0.00 77 1017.9
20260502025027 47 0 0.0 0.0 0.00 0.00 0.00 76 1017.8
20260502024543 48 0 0.0 0.0 0.00 0.00 0.00 75 1017.7
20260502024026 48 0 0.0 0.0 0.00 0.00 0.00 74 1017.5
20260502023529 48 0 0.0 0.0 0.00 0.00 0.00 75 1017.5
20260502023043 49 0 0.0 0.0 0.00 0.00 0.00 73 1017.6
20260502022526 49 0 0.0 0.0 0.00 0.00 0.00 72 1017.6
20260502022028 50 0 0.0 0.0 0.00 0.00 0.00 72 1017.6
20260502021542 50 0 0.0 0.0 0.00 0.00 0.00 71 1017.4
20260502021028 50 0 0.0 0.0 0.00 0.00 0.00 68 1017.5
20260502020529 51 0 0.0 0.0 0.00 0.00 0.00 66 1017.5
20260502020042 51 0 0.0 2.0 0.00 0.00 0.00 66 1017.4
20260502015529 51 0 0.0 3.0 0.00 0.00 0.00 65 1017.3
20260502015026 51 0 0.0 3.0 0.00 0.00 0.00 64 1017.1
20260502014539 51 0 0.0 2.0 0.00 0.00 0.00 64 1017.0
20260502014026 51 344 1.0 2.0 0.00 0.00 0.00 63 1017.0
20260502013528 52 0 0.0 2.0 0.00 0.00 0.00 63 1017.0
20260502013047 52 0 0.0 2.0 0.00 0.00 0.00 63 1017.0
20260502012529 52 0 0.0 2.0 0.00 0.00 0.00 62 1016.9
20260502012026 53 0 0.0 2.0 0.00 0.00 0.00 61 1016.8
20260502011547 53 0 0.0 1.0 0.00 0.00 0.00 62 1016.7
20260502011026 53 0 0.0 1.0 0.00 0.00 0.00 60 1016.7
20260502010529 53 0 0.0 1.0 0.00 0.00 0.00 58 1016.7
20260502010048 54 0 0.0 2.0 0.00 0.00 0.00 58 1016.5
20260502005528 54 0 0.0 4.0 0.00 0.00 0.00 57 1016.5
20260502005027 55 14 0.0 4.0 0.00 0.00 0.00 56 1016.3
20260502004542 55 0 1.0 4.0 0.00 0.00 0.00 55 1016.3
20260502004027 55 345 0.0 4.0 0.00 0.00 0.00 55 1016.2
20260502003525 56 360 1.0 3.0 0.00 0.00 0.00 53 1016.1
20260502003042 56 355 1.0 3.0 0.00 0.00 0.00 53 1016.2
20260502002526 56 327 0.0 3.0 0.00 0.00 0.00 53 1016.0
20260502002030 56 338 1.0 4.0 0.00 0.00 0.00 51 1015.8
20260502001542 57 339 1.0 6.0 0.00 0.00 0.00 50 1015.7
20260502001030 57 344 1.0 6.0 0.00 0.00 0.00 51 1015.6
20260502000526 57 342 1.0 6.0 0.00 0.00 0.00 49 1015.5
20260502000057 58 355 2.0 5.0 0.00 0.00 0.00 49 1015.4
20260501235528 58 327 1.0 4.0 0.00 0.00 0.00 48 1015.2
20260501235026 58 9 1.0 4.0 0.00 0.00 0.00 47 1015.1
20260501234545 59 355 2.0 5.0 0.00 0.00 0.00 46 1015.0
20260501234028 59 355 2.0 6.0 0.00 0.00 0.00 46 1015.0
20260501233526 59 40 2.0 6.0 0.00 0.00 0.00 46 1015.0
20260501233043 59 339 1.0 9.0 0.00 0.00 0.00 45 1015.0
20260501232529 59 355 1.0 9.0 0.00 0.00 0.00 44 1015.0
20260501232029 59 275 2.0 9.0 0.00 0.00 0.00 44 1014.9
20260501231557 59 344 2.0 9.0 0.00 0.00 0.00 43 1014.8
20260501231029 60 40 2.0 8.0 0.00 0.00 0.00 44 1014.9
20260501230526 60 333 2.0 8.0 0.00 0.00 0.00 42 1014.8
20260501230044 60 308 1.0 8.0 0.00 0.00 0.00 43 1014.9
20260501225527 60 288 2.0 6.0 0.00 0.00 0.00 42 1014.8
20260501225028 60 319 1.0 11.0 0.00 0.00 0.00 41 1014.6
20260501224557 60 39 2.0 11.0 0.00 0.00 0.00 40 1014.6
20260501224026 61 17 4.0 11.0 0.00 0.00 0.00 39 1014.5
20260501223529 61 5 2.0 8.0 0.00 0.00 0.00 41 1014.4
20260501223050 61 310 2.0 9.0 0.00 0.00 0.00 41 1014.6
20260501222528 61 338 3.0 9.0 0.00 0.00 0.00 39 1014.5
20260501222026 62 309 2.0 9.0 0.00 0.00 0.00 40 1014.5
20260501221601 62 304 3.0 9.0 0.00 0.00 0.00 38 1014.5
20260501221028 62 322 3.0 9.0 0.00 0.00 0.00 40 1014.4
20260501220529 62 308 2.0 9.0 0.00 0.00 0.00 40 1014.4
20260501220046 62 311 2.0 7.0 0.00 0.00 0.00 39 1014.4
20260501215526 62 302 1.0 10.0 0.00 0.00 0.00 41 1014.5
20260501215029 62 294 2.0 10.0 0.00 0.00 0.00 40 1014.5
20260501214541 62 5 3.0 12.0 0.00 0.00 0.00 35 1014.6
20260501214028 63 273 3.0 12.0 0.00 0.00 0.00 38 1014.4
20260501213528 63 281 1.0 5.0 0.00 0.00 0.00 39 1014.4
20260501213041 63 311 2.0 8.0 0.00 0.00 0.00 40 1014.5
20260501212526 63 319 2.0 8.0 0.00 0.00 0.00 42 1014.6
20260501212026 63 308 2.0 11.0 0.00 0.00 0.00 41 1014.5
20260501211602 63 281 3.0 11.0 0.00 0.00 0.00 41 1014.5
20260501211026 63 5 4.0 10.0 0.00 0.00 0.00 39 1014.5
20260501210526 63 200 3.0 10.0 0.00 0.00 0.00 39 1014.7
20260501210048 63 333 3.0 10.0 0.00 0.00 0.00 39 1014.8
20260501205528 63 316 4.0 10.0 0.00 0.00 0.00 41 1014.9
20260501205029 63 16 2.0 10.0 0.00 0.00 0.00 44 1014.9
20260501204547 64 349 3.0 10.0 0.00 0.00 0.00 40 1015.0
20260501204029 64 336 3.0 10.0 0.00 0.00 0.00 41 1015.0
20260501203526 64 317 2.0 8.0 0.00 0.00 0.00 46 1015.1
20260501203040 64 5 1.0 8.0 0.00 0.00 0.00 44 1015.2
20260501202529 63 312 2.0 10.0 0.00 0.00 0.00 44 1015.4
20260501202027 64 350 3.0 11.0 0.00 0.00 0.00 40 1015.3
20260501201540 64 316 5.0 11.0 0.00 0.00 0.00 40 1015.4
20260501201026 65 294 2.0 9.0 0.00 0.00 0.00 43 1015.4
20260501200528 65 238 3.0 9.0 0.00 0.00 0.00 45 1015.5
20260501200038 65 292 2.0 7.0 0.00 0.00 0.00 45 1015.6
20260501195528 65 263 2.0 7.0 0.00 0.00 0.00 43 1015.6
20260501195026 65 5 2.0 6.0 0.00 0.00 0.00 45 1015.6
20260501194548 65 277 2.0 6.0 0.00 0.00 0.00 47 1015.7
20260501194026 64 355 1.0 10.0 0.00 0.00 0.00 47 1015.8
20260501193528 64 5 3.0 10.0 0.00 0.00 0.00 46 1016.0
20260501193048 64 317 3.0 10.0 0.00 0.00 0.00 48 1016.0
20260501192526 65 352 4.0 10.0 0.00 0.00 0.00 48 1016.0
20260501192026 65 293 2.0 8.0 0.00 0.00 0.00 48 1016.1
20260501191548 65 142 1.0 8.0 0.00 0.00 0.00 50 1016.1
20260501191029 64 227 2.0 8.0 0.00 0.00 0.00 53 1016.0
20260501190529 64 297 2.0 6.0 0.00 0.00 0.00 51 1016.2
20260501190042 65 310 2.0 6.0 0.00 0.00 0.00 52 1016.3
20260501185529 64 186 2.0 8.0 0.00 0.00 0.00 55 1016.1
20260501185032 64 278 1.0 8.0 0.00 0.00 0.00 55 1016.1
20260501184540 65 304 3.0 8.0 0.00 0.00 0.00 51 1016.1
20260501184032 64 219 3.0 12.0 0.00 0.00 0.00 56 1016.3
20260501183531 64 302 2.0 12.0 0.00 0.00 0.00 54 1016.2
20260501183051 64 227 4.0 12.0 0.00 0.00 0.00 53 1016.2
20260501182528 64 40 2.0 8.0 0.00 0.00 0.00 59 1016.2
20260501182029 64 290 2.0 9.0 0.00 0.00 0.00 58 1016.1
20260501181545 64 295 2.0 9.0 0.00 0.00 0.00 55 1016.1
20260501181026 64 316 2.0 8.0 0.00 0.00 0.00 54 1016.1
20260501180526 64 269 1.0 9.0 0.00 0.00 0.00 57 1016.0
20260501180040 64 273 3.0 10.0 0.00 0.00 0.00 58 1016.2
20260501175526 63 332 3.0 10.0 0.00 0.00 0.00 55 1016.1
20260501175026 64 239 4.0 10.0 0.00 0.00 0.00 55 1016.1
20260501174550 64 349 1.0 11.0 0.00 0.00 0.00 57 1016.0
20260501174026 63 292 4.0 11.0 0.00 0.00 0.00 55 1016.0
20260501173528 64 281 3.0 11.0 0.00 0.00 0.00 57 1016.1
20260501173046 64 254 4.0 11.0 0.00 0.00 0.00 55 1016.2
20260501172527 64 9 3.0 9.0 0.00 0.00 0.00 56 1016.2
20260501172028 64 279 3.0 12.0 0.00 0.00 0.00 55 1016.3
20260501171543 64 275 2.0 12.0 0.00 0.00 0.00 58 1016.4
20260501171029 64 300 2.0 12.0 0.00 0.00 0.00 54 1016.3
20260501170529 63 0 1.0 11.0 0.00 0.00 0.00 56 1016.3
20260501170040 63 327 2.0 11.0 0.00 0.00 0.00 57 1016.3
20260501165527 63 326 3.0 11.0 0.00 0.00 0.00 51 1016.3
20260501165029 64 288 1.0 7.0 0.00 0.00 0.00 54 1016.3
20260501164540 64 302 2.0 6.0 0.00 0.00 0.00 54 1016.3
20260501164029 65 314 1.0 9.0 0.00 0.00 0.00 54 1016.3
20260501163526 64 0 1.0 9.0 0.00 0.00 0.00 56 1016.2
20260501163049 64 249 0.0 5.0 0.00 0.00 0.00 58 1016.3
20260501162526 64 0 1.0 5.0 0.00 0.00 0.00 58 1016.2
20260501162029 64 266 0.0 5.0 0.00 0.00 0.00 59 1016.3
20260501161549 64 253 1.0 5.0 0.00 0.00 0.00 63 1016.4
20260501161029 64 263 2.0 6.0 0.00 0.00 0.00 62 1016.5
20260501160526 64 5 2.0 8.0 0.00 0.00 0.00 58 1016.4
20260501160044 63 0 1.0 8.0 0.00 0.00 0.00 62 1016.4
20260501155529 63 232 3.0 11.0 0.00 0.00 0.00 62 1016.4
20260501155029 63 302 2.0 11.0 0.00 0.00 0.00 63 1016.4
20260501154546 63 283 2.0 7.0 0.00 0.00 0.00 64 1016.4
20260501154026 63 293 1.0 6.0 0.00 0.00 0.00 65 1016.4
20260501153530 62 215 2.0 9.0 0.00 0.00 0.00 67 1016.4
20260501153042 62 294 3.0 11.0 0.00 0.00 0.00 65 1016.4
20260501152531 61 13 3.0 11.0 0.00 0.00 0.00 67 1016.3
20260501152029 62 316 3.0 11.0 0.00 0.00 0.00 66 1016.3
20260501151541 62 23 2.0 10.0 0.00 0.00 0.00 69 1016.2
20260501151029 62 317 2.0 12.0 0.00 0.00 0.00 69 1016.2
20260501150528 62 242 4.0 12.0 0.00 0.00 0.00 71 1016.1
20260501150040 62 0 2.0 6.0 0.00 0.00 0.00 68 1016.2
20260501145528 62 334 2.0 6.0 0.00 0.00 0.00 68 1016.0
20260501145027 62 293 2.0 10.0 0.00 0.00 0.00 67 1016.1
20260501144548 62 12 2.0 10.0 0.00 0.00 0.00 67 1016.0
20260501144029 62 360 3.0 10.0 0.00 0.00 0.00 66 1016.0
20260501143529 62 252 1.0 5.0 0.00 0.00 0.00 65 1016.0
20260501143059 62 323 1.0 6.0 0.00 0.00 0.00 65 1015.9
20260501142529 62 294 1.0 6.0 0.00 0.00 0.00 63 1015.9
20260501142028 62 325 1.0 5.0 0.00 0.00 0.00 62 1016.0
20260501141551 61 255 1.0 5.0 0.00 0.00 0.00 61 1016.0